P/2019 A4 ( PanSTARRS ) 2023

Japanese version
Home page
Updated on January 8, 2021

---------------------------------------------------------------------

* Profile

* Orbital Elements

Epoch 2023 Feb. 25.0 TT = JDT 2460000.5
T 2023 Mar. 2.89700 TT                                  MPCW
q   2.3857339            (2000.0)            P               Q
n   0.23329855     Peri.  342.92615     -0.21767295     -0.95513651
a   2.6133326      Node   119.24279     +0.92021400     -0.26941608
e   0.0870913      Incl.   13.30665     +0.32530707     +0.12300092
P   4.22
From 65 observations 2018 Dec. 31-2019 Mar. 2, mean residual 0".6.

* Magnitudes Graph

        m1 = 15.0 + 5 log d + 10.0 log r

---------------------------------------------------------------------

The orbital elements are published on M.P.E.C. 2019-J142.
The magnitudes graphs are made with Comet for Windows.

---------------------------------------------------------------------

Copyright(C) Seiichi Yoshida (comet@aerith.net). All rights reserved.